{"data":{"norad_id":81947,"epoch":"2026-05-22T05:21:14.960448Z","epoch_age_seconds":325720,"freshness":"STALE","line1":"1 81947U          26142.22308982  .00005903  00000+0  56191-3 0  9999","line2":"2 81947  66.0742  79.8143 0368737  41.5352 321.3150 14.54457894654340","mean_motion":14.54457894,"eccentricity":0.0368737,"inclination_deg":66.0742,"raan_deg":79.8143,"arg_perigee_deg":41.5352,"mean_anomaly_deg":321.315,"bstar":0.00056191,"rev_number":65434,"period_min":99.005959948401,"perigee_km":449.71839645796,"apogee_km":972.53309175259,"semimajor_km":7089.2627441053,"source":"CELESTRAK","updated_at":"2026-05-25T13:38:11.088814Z"}}